Powrót do katalogu

STARLINK-36672

AktywnyŁącznośćSSO
NORAD 68674·PAYLOAD·🇺🇸 United States

Wystrzelony Apr 11, 2026 z Vandenberg Space Force Base

Loading…

Następne Przeloty (najbliższe 24 godziny)

TLE

ŚwieżeSource: CelesTrak SupGP

Epoka: Sep 15, 2026, 04:20 UTC

1 68674C 26077N   26258.18104167 -.00019344  00000+0 -60035-3 0  2581
2 68674  97.2845 128.1488 0002086  94.8791  55.3931 15.33454570    18

Śledź STARLINK-36672 w czasie rzeczywistym z AllMySat

Download on the App Store